• In Uzbekistan
  • List of Countries
  • For 7 days
  • Water Temperature
  • Satellite Maps
  • Weather Map
  • Weather Widgets
  • user-avatar
    Login

    Hourly Weather Folkern

    Today, 24 September, Monday

    Time Temperature Precipitation Wind Pressure Humidity
    00:00 +9°C° 0 mm 8 mps 772 mmHg 71%
    01:00 +9°C° 0.1 mm 8 mps 772 mmHg 71%
    02:00 +9°C° 0.1 mm 8 mps 772 mmHg 71%
    03:00 +9°C° 0.1 mm 8 mps 773 mmHg 71%
    04:00 +9°C° 0.1 mm 8 mps 773 mmHg 71%
    05:00 +9°C° 0.1 mm 8 mps 773 mmHg 72%
    06:00 +9°C° 0 mm 8 mps 773 mmHg 73%
    07:00 +9°C° 0.1 mm 8 mps 773 mmHg 72%
    08:00 +10°C° 0.1 mm 8 mps 773 mmHg 71%
    09:00 +10°C° 0.1 mm 7 mps 774 mmHg 70%
    10:00 +10°C° 0.1 mm 7 mps 774 mmHg 70%
    11:00 +11°C° 0.1 mm 7 mps 774 mmHg 69%
    12:00 +11°C° 0.1 mm 7 mps 774 mmHg 68%
    13:00 +11°C° 0 mm 8 mps 774 mmHg 69%
    14:00 +11°C° 0 mm 8 mps 774 mmHg 69%
    15:00 +11°C° 0 mm 8 mps 774 mmHg 70%
    16:00 +11°C° 0 mm 8 mps 774 mmHg 73%
    17:00 +11°C° 0 mm 8 mps 773 mmHg 76%
    18:00 +10°C° 0 mm 9 mps 773 mmHg 79%
    19:00 +10°C° 0.1 mm 9 mps 773 mmHg 80%
    20:00 +10°C° 0.1 mm 9 mps 773 mmHg 81%
    21:00 +10°C° 0.1 mm 9 mps 773 mmHg 82%
    22:00 +9°C° 0 mm 10 mps 773 mmHg 82%
    23:00 +9°C° 0 mm 10 mps 772 mmHg 82%

    Tomorrow, 25 September, Tuesday

    Time Temperature Precipitation Wind Pressure Humidity
    00:00 +9°C° 0 mm 10 mps 772 mmHg 82%
    01:00 +9°C° 0 mm 11 mps 771 mmHg 81%
    02:00 +9°C° 0 mm 12 mps 770 mmHg 80%
    03:00 +9°C° 0 mm 12 mps 770 mmHg 79%
    04:00 +9°C° 0 mm 13 mps 769 mmHg 78%
    05:00 +9°C° 0 mm 13 mps 768 mmHg 76%
    06:00 +9°C° 0 mm 14 mps 767 mmHg 74%
    07:00 +9°C° 0.2 mm 15 mps 766 mmHg 75%
    08:00 +9°C° 0.2 mm 16 mps 765 mmHg 75%
    09:00 +9°C° 0.2 mm 17 mps 764 mmHg 75%
    10:00 +9°C° 0.8 mm 17 mps 764 mmHg 79%
    11:00 +10°C° 0.8 mm 17 mps 763 mmHg 83%
    12:00 +10°C° 0.8 mm 17 mps 762 mmHg 88%
    13:00 +10°C° 0.5 mm 16 mps 762 mmHg 89%
    14:00 +11°C° 0.5 mm 15 mps 762 mmHg 91%
    15:00 +13°C° 0.5 mm 15 mps 762 mmHg 92%
    16:00 +13°C° 0.2 mm 13 mps 762 mmHg 93%
    17:00 +13°C° 0.2 mm 12 mps 762 mmHg 94%
    18:00 +13°C° 0.2 mm 11 mps 761 mmHg 95%
    19:00 +13°C° 0.1 mm 11 mps 762 mmHg 95%
    20:00 +13°C° 0.1 mm 10 mps 762 mmHg 95%
    21:00 +13°C° 0.1 mm 10 mps 762 mmHg 95%
    22:00 +13°C° 0.5 mm 10 mps 762 mmHg 95%
    23:00 +13°C° 0.5 mm 10 mps 762 mmHg 95%

    Day after tomorrow, 26 September, Wednesday

    Time Temperature Precipitation Wind Pressure Humidity
    00:00 +12°C° 0.5 mm 9 mps 762 mmHg 96%
    01:00 +13°C° 0.8 mm 10 mps 761 mmHg 95%
    02:00 +13°C° 0.8 mm 11 mps 761 mmHg 95%
    03:00 +13°C° 0.8 mm 12 mps 761 mmHg 95%
    04:00 +13°C° 0.5 mm 13 mps 760 mmHg 94%
    05:00 +13°C° 0.5 mm 14 mps 760 mmHg 94%
    06:00 +14°C° 0.5 mm 15 mps 760 mmHg 93%
    07:00 +14°C° 0.1 mm 15 mps 760 mmHg 92%
    08:00 +14°C° 0.1 mm 15 mps 760 mmHg 92%
    09:00 +14°C° 0.1 mm 14 mps 761 mmHg 91%
    10:00 +14°C° 0.1 mm 14 mps 761 mmHg 91%
    11:00 +14°C° 0.1 mm 14 mps 762 mmHg 91%
    12:00 +13°C° 0.1 mm 14 mps 762 mmHg 91%
    13:00 +13°C° 0.1 mm 14 mps 762 mmHg 92%
    14:00 +13°C° 0.1 mm 14 mps 763 mmHg 92%
    15:00 +13°C° 0.1 mm 13 mps 763 mmHg 92%
    16:00 +13°C° 0.1 mm 13 mps 763 mmHg 93%
    17:00 +13°C° 0.1 mm 12 mps 764 mmHg 94%
    18:00 +13°C° 0.1 mm 11 mps 764 mmHg 94%
    19:00 +13°C° 0.1 mm 10 mps 764 mmHg 95%
    20:00 +12°C° 0.1 mm 9 mps 765 mmHg 95%
    21:00 +12°C° 0.1 mm 9 mps 765 mmHg 95%
    22:00 +12°C° 0.2 mm 9 mps 765 mmHg 95%
    23:00 +12°C° 0.2 mm 9 mps 765 mmHg 95%

    27 September, Thursday

    Time Temperature Precipitation Wind Pressure Humidity
    00:00 +12°C° 0.2 mm 9 mps 765 mmHg 95%
    01:00 +12°C° 0.7 mm 9 mps 764 mmHg 95%
    02:00 +12°C° 0.7 mm 9 mps 764 mmHg 94%
    03:00 +11°C° 0.7 mm 9 mps 764 mmHg 94%
    04:00 +11°C° 0.6 mm 8 mps 764 mmHg 94%
    05:00 +11°C° 0.6 mm 8 mps 764 mmHg 93%
    06:00 +10°C° 0.6 mm 7 mps 764 mmHg 93%
    07:00 +10°C° 0.4 mm 7 mps 764 mmHg 92%
    08:00 +10°C° 0.4 mm 6 mps 764 mmHg 92%
    09:00 +9°C° 0.4 mm 5 mps 765 mmHg 91%
    10:00 +9°C° 0.4 mm 6 mps 765 mmHg 90%
    11:00 +9°C° 0.4 mm 6 mps 766 mmHg 89%
    12:00 +9°C° 0.4 mm 6 mps 766 mmHg 88%
    13:00 +9°C° 0.1 mm 6 mps 767 mmHg 86%
    14:00 +9°C° 0.1 mm 6 mps 767 mmHg 84%
    15:00 +9°C° 0.1 mm 6 mps 767 mmHg 81%
    16:00 +9°C° 0 mm 6 mps 768 mmHg 79%
    17:00 +9°C° 0 mm 6 mps 768 mmHg 78%
    18:00 +9°C° 0 mm 6 mps 769 mmHg 76%
    19:00 +9°C° 0 mm 6 mps 769 mmHg 75%
    20:00 +8°C° 0 mm 5 mps 770 mmHg 74%
    21:00 +8°C° 0 mm 5 mps 770 mmHg 73%
    22:00 +8°C° 0 mm 5 mps 771 mmHg 74%
    23:00 +8°C° 0 mm 5 mps 771 mmHg 74%

    28 September, Friday

    Time Temperature Precipitation Wind Pressure Humidity
    00:00 +8°C° 0 mm 4 mps 771 mmHg 75%
    01:00 +8°C° 0 mm 5 mps 771 mmHg 76%
    02:00 +8°C° 0 mm 5 mps 771 mmHg 77%
    03:00 +8°C° 0 mm 5 mps 772 mmHg 78%
    04:00 +8°C° 0 mm 5 mps 772 mmHg 78%
    05:00 +8°C° 0 mm 5 mps 772 mmHg 78%
    06:00 +8°C° 0 mm 5 mps 772 mmHg 78%
    07:00 +8°C° 0 mm 4 mps 773 mmHg 75%
    08:00 +10°C° 0 mm 3 mps 773 mmHg 72%
    09:00 +10°C° 0 mm 3 mps 773 mmHg 69%
    10:00 +11°C° 0 mm 3 mps 773 mmHg 66%
    11:00 +12°C° 0 mm 2 mps 773 mmHg 63%
    12:00 +12°C° 0 mm 2 mps 774 mmHg 61%
    13:00 +12°C° 0 mm 2 mps 773 mmHg 60%
    14:00 +11°C° 0 mm 3 mps 773 mmHg 60%
    15:00 +11°C° 0 mm 3 mps 773 mmHg 60%
    16:00 +10°C° 0 mm 3 mps 773 mmHg 62%
    17:00 +10°C° 0 mm 3 mps 773 mmHg 65%
    18:00 +9°C° 0 mm 3 mps 773 mmHg 67%
    19:00 +8°C° 0 mm 4 mps 773 mmHg 68%
    20:00 +8°C° 0 mm 4 mps 773 mmHg 70%
    21:00 +8°C° 0 mm 5 mps 772 mmHg 71%
    22:00 +8°C° 0 mm 5 mps 772 mmHg 72%
    23:00 +9°C° 0 mm 6 mps 772 mmHg 72%

    29 September, Saturday

    Time Temperature Precipitation Wind Pressure Humidity
    00:00 +9°C° 0 mm 7 mps 771 mmHg 73%
    01:00 +9°C° 0 mm 7 mps 771 mmHg 73%
    02:00 +9°C° 0 mm 8 mps 771 mmHg 74%
    03:00 +9°C° 0 mm 8 mps 770 mmHg 74%
    04:00 +8°C° 0 mm 9 mps 770 mmHg 75%
    05:00 +8°C° 0 mm 9 mps 769 mmHg 76%
    06:00 +8°C° 0 mm 9 mps 769 mmHg 77%
    07:00 +8°C° 0 mm 9 mps 769 mmHg 77%
    08:00 +8°C° 0 mm 9 mps 769 mmHg 78%
    09:00 +8°C° 0 mm 9 mps 769 mmHg 78%
    10:00 +8°C° 0 mm 9 mps 768 mmHg 78%
    11:00 +8°C° 0 mm 9 mps 768 mmHg 78%
    12:00 +8°C° 0 mm 9 mps 768 mmHg 79%
    13:00 +10°C° 0.1 mm 9 mps 768 mmHg 79%
    14:00 +10°C° 0.1 mm 9 mps 767 mmHg 79%
    15:00 +10°C° 0.1 mm 9 mps 767 mmHg 80%
    16:00 +10°C° 0.1 mm 9 mps 767 mmHg 80%
    17:00 +10°C° 0.1 mm 9 mps 766 mmHg 80%
    18:00 +10°C° 0.1 mm 9 mps 766 mmHg 80%
    19:00 +10°C° 0.1 mm 9 mps 766 mmHg 80%
    20:00 +10°C° 0.1 mm 9 mps 766 mmHg 79%
    21:00 +10°C° 0.1 mm 9 mps 766 mmHg 79%
    22:00 +10°C° 0 mm 9 mps 766 mmHg 79%
    23:00 +10°C° 0 mm 9 mps 766 mmHg 78%
    Show more